QLK1840 YBBN-YBRK

Flight info

Callsign QLK1840
Flight time 1h 1m
Altitude 32000
Route BN Q67 LOAFA Q64 OLDIB/N0333F200 V308 RK
Aircraft E190/M-SDE3GILORVW/S

Departure

Time 2026-05-04 20:55
Airport Brisbane International Airport (YBBN)

Arrival

Time 2026-05-04 21:57
Airport Rockhampton Airport (YBRK)
Time Latitude Longitude Altitude Speed Heading
2026-05-04 20:14 -27.38083 153.12524 21 ft 0 kts 297°
2026-05-04 20:46 -27.38084 153.12524 21 ft 1 kts 297°
2026-05-04 20:46 -27.38090 153.12540 21 ft 2 kts 297°
2026-05-04 20:46 -27.38097 153.12555 21 ft 2 kts 297°
2026-05-04 20:46 -27.38104 153.12570 21 ft 2 kts 300°
2026-05-04 20:47 -27.38117 153.12581 21 ft 2 kts 342°
2026-05-04 20:47 -27.38133 153.12582 21 ft 2 kts 16°
2026-05-04 20:47 -27.38139 153.12579 21 ft 1 kts 32°
2026-05-04 20:47 -27.38143 153.12578 21 ft 0 kts 27°
2026-05-04 20:49 -27.38119 153.12590 21 ft 12 kts 27°
2026-05-04 20:49 -27.38035 153.12639 21 ft 13 kts 21°
2026-05-04 20:49 -27.37976 153.12595 21 ft 11 kts 296°
2026-05-04 20:50 -27.37944 153.12523 21 ft 10 kts 297°
2026-05-04 20:50 -27.37889 153.12503 21 ft 10 kts 27°
2026-05-04 20:50 -27.37829 153.12508 21 ft 9 kts 302°
2026-05-04 20:50 -27.37780 153.12396 21 ft 26 kts 296°
2026-05-04 20:51 -27.37694 153.12205 21 ft 27 kts 296°
2026-05-04 20:51 -27.37606 153.12012 21 ft 28 kts 297°
2026-05-04 20:51 -27.37518 153.11821 21 ft 28 kts 297°
2026-05-04 20:51 -27.37428 153.11621 21 ft 27 kts 297°
2026-05-04 20:52 -27.37355 153.11552 21 ft 12 kts 21°
2026-05-04 20:52 -27.37199 153.11639 21 ft 30 kts 26°
2026-05-04 20:52 -27.37008 153.11748 21 ft 30 kts 26°
2026-05-04 20:52 -27.36822 153.11856 21 ft 30 kts 27°
2026-05-04 20:53 -27.36633 153.11961 21 ft 30 kts 27°
2026-05-04 20:53 -27.36447 153.12071 21 ft 29 kts 27°
2026-05-04 20:53 -27.36259 153.12178 21 ft 29 kts 27°
2026-05-04 20:53 -27.36074 153.12283 21 ft 29 kts 27°
2026-05-04 20:54 -27.35903 153.12383 21 ft 14 kts 26°
2026-05-04 20:54 -27.35813 153.12344 21 ft 18 kts 324°
2026-05-04 20:54 -27.35705 153.12259 21 ft 17 kts 321°
2026-05-04 20:54 -27.35711 153.12164 20 ft 14 kts 208°
2026-05-04 20:55 -27.35875 153.12070 19 ft 55 kts 207°
2026-05-04 20:55 -27.36425 153.11755 18 ft 119 kts 207°
2026-05-04 20:55 -27.37318 153.11238 143 ft 156 kts 208°
2026-05-04 20:55 -27.38258 153.10678 783 ft 157 kts 209°
2026-05-04 20:56 -27.39185 153.10106 1426 ft 149 kts 207°
2026-05-04 20:56 -27.40157 153.09590 1255 ft 168 kts 204°
2026-05-04 20:56 -27.41281 153.09052 1248 ft 178 kts 204°
2026-05-04 20:56 -27.42423 153.08453 1671 ft 181 kts 209°
2026-05-04 20:57 -27.43514 153.07722 1631 ft 185 kts 209°
2026-05-04 20:57 -27.44753 153.06978 1888 ft 218 kts 207°
2026-05-04 20:57 -27.46207 153.06151 2272 ft 250 kts 214°
2026-05-04 20:57 -27.47322 153.04530 2793 ft 276 kts 250°
2026-05-04 20:58 -27.47532 153.02504 3361 ft 254 kts 268°
2026-05-04 20:58 -27.47602 153.00485 3911 ft 264 kts 265°
2026-05-04 20:58 -27.47723 152.98404 4771 ft 271 kts 265°
2026-05-04 20:58 -27.47854 152.96303 5742 ft 271 kts 270°
2026-05-04 20:59 -27.47321 152.94312 6601 ft 274 kts 305°
2026-05-04 20:59 -27.45888 152.92906 7411 ft 277 kts 329°
2026-05-04 20:59 -27.44212 152.91789 8204 ft 280 kts 332°
2026-05-04 20:59 -27.42352 152.91277 8902 ft 283 kts
2026-05-04 21:00 -27.40498 152.91988 9525 ft 288 kts 37°
2026-05-04 21:00 -27.39168 152.93695 10097 ft 295 kts 57°
2026-05-04 21:00 -27.38002 152.95624 10781 ft 302 kts 56°
2026-05-04 21:00 -27.36786 152.97592 11455 ft 310 kts 55°
2026-05-04 21:01 -27.35542 152.99589 12100 ft 319 kts 55°
2026-05-04 21:01 -27.34232 153.01683 12796 ft 328 kts 55°
2026-05-04 21:01 -27.32909 153.03795 13407 ft 333 kts 54°
2026-05-04 21:01 -27.31572 153.05925 13947 ft 340 kts 53°
2026-05-04 21:02 -27.30182 153.08139 14354 ft 350 kts 52°
2026-05-04 21:02 -27.28592 153.10205 14777 ft 355 kts 38°
2026-05-04 21:02 -27.26722 153.12044 15327 ft 361 kts 37°
2026-05-04 21:02 -27.24803 153.13919 15946 ft 364 kts 36°
2026-05-04 21:03 -27.22863 153.15814 16539 ft 368 kts 36°
2026-05-04 21:03 -27.20698 153.17444 17105 ft 361 kts 16°
2026-05-04 21:03 -27.18308 153.18358 17668 ft 361 kts 12°
2026-05-04 21:03 -27.15900 153.19218 18234 ft 365 kts 12°
2026-05-04 21:04 -27.13474 153.20079 18812 ft 368 kts 11°
2026-05-04 21:04 -27.11015 153.20949 19398 ft 371 kts 11°
2026-05-04 21:04 -27.08531 153.21825 19922 ft 374 kts 11°
2026-05-04 21:04 -27.06044 153.22702 20465 ft 377 kts 11°
2026-05-04 21:05 -27.03510 153.23587 20991 ft 379 kts
2026-05-04 21:05 -27.00913 153.23921 21494 ft 370 kts 355°
2026-05-04 21:05 -26.98345 153.23984 22006 ft 372 kts 354°
2026-05-04 21:05 -26.95738 153.24043 22507 ft 375 kts 354°
2026-05-04 21:06 -26.93098 153.24101 23013 ft 377 kts 354°
2026-05-04 21:06 -26.90476 153.24159 23491 ft 380 kts 353°
2026-05-04 21:06 -26.87811 153.24217 24006 ft 382 kts 353°
2026-05-04 21:06 -26.85124 153.24275 24482 ft 384 kts 353°
2026-05-04 21:07 -26.82446 153.24335 24996 ft 386 kts 353°
2026-05-04 21:07 -26.79755 153.24393 25476 ft 388 kts 353°
2026-05-04 21:07 -26.77031 153.24452 25919 ft 390 kts 353°
2026-05-04 21:07 -26.74319 153.24510 26362 ft 393 kts 353°
2026-05-04 21:08 -26.71569 153.24571 26780 ft 396 kts 353°
2026-05-04 21:08 -26.68805 153.24428 27149 ft 387 kts 340°
2026-05-04 21:08 -26.66256 153.23628 27560 ft 384 kts 336°
2026-05-04 21:08 -26.63663 153.22740 28001 ft 386 kts 336°
2026-05-04 21:09 -26.61064 153.21843 28424 ft 387 kts 336°
2026-05-04 21:09 -26.58486 153.20952 28805 ft 390 kts 336°
2026-05-04 21:09 -26.55868 153.20047 29195 ft 392 kts 336°
2026-05-04 21:09 -26.53278 153.19151 29582 ft 394 kts 336°
2026-05-04 21:10 -26.50636 153.18239 29975 ft 395 kts 336°
2026-05-04 21:10 -26.47987 153.17323 30316 ft 398 kts 335°
2026-05-04 21:10 -26.45331 153.16406 30703 ft 399 kts 335°
2026-05-04 21:10 -26.42668 153.15488 31062 ft 400 kts 335°
2026-05-04 21:11 -26.40004 153.14568 31434 ft 401 kts 335°
2026-05-04 21:11 -26.37325 153.13644 31682 ft 405 kts 335°
2026-05-04 21:11 -26.34592 153.12703 32003 ft 405 kts 335°
2026-05-04 21:11 -26.31916 153.11781 32068 ft 400 kts 335°
2026-05-04 21:12 -26.26759 153.09438 32098 ft 399 kts 322°
2026-05-04 21:12 -26.22369 153.05879 32089 ft 396 kts 318°
2026-05-04 21:13 -26.17911 153.02226 32084 ft 396 kts 318°
2026-05-04 21:13 -26.13462 152.98590 32087 ft 395 kts 319°
2026-05-04 21:14 -26.09021 152.94987 32084 ft 396 kts 319°
2026-05-04 21:14 -26.04530 152.91380 32086 ft 396 kts 319°
2026-05-04 21:15 -26.00069 152.87801 32090 ft 393 kts 319°
2026-05-04 21:15 -25.95633 152.84244 32086 ft 395 kts 319°
2026-05-04 21:16 -25.91186 152.80681 32084 ft 395 kts 319°
2026-05-04 21:16 -25.86667 152.77063 32091 ft 396 kts 319°
2026-05-04 21:17 -25.82195 152.73488 32093 ft 394 kts 319°
2026-05-04 21:17 -25.77733 152.69923 32087 ft 394 kts 319°
2026-05-04 21:18 -25.73263 152.66356 32087 ft 393 kts 319°
2026-05-04 21:18 -25.69024 152.62976 32076 ft 395 kts 319°
2026-05-04 21:19 -25.64631 152.59476 32077 ft 395 kts 319°
2026-05-04 21:19 -25.60134 152.55898 32086 ft 396 kts 319°
2026-05-04 21:20 -25.55664 152.52344 32079 ft 396 kts 319°
2026-05-04 21:20 -25.51154 152.48759 32079 ft 396 kts 319°
2026-05-04 21:21 -25.46669 152.45201 32081 ft 395 kts 319°
2026-05-04 21:21 -25.42194 152.41652 32074 ft 398 kts 319°
2026-05-04 21:22 -25.37691 152.38086 32083 ft 395 kts 319°
2026-05-04 21:22 -25.33194 152.34526 32081 ft 397 kts 319°
2026-05-04 21:23 -25.28705 152.30978 32089 ft 396 kts 319°
2026-05-04 21:23 -25.24188 152.27409 32094 ft 398 kts 319°
2026-05-04 21:24 -25.19682 152.23854 32082 ft 396 kts 319°
2026-05-04 21:24 -25.15261 152.20367 32081 ft 399 kts 319°
2026-05-04 21:25 -25.10816 152.16867 32090 ft 395 kts 319°
2026-05-04 21:25 -25.06424 152.13409 32082 ft 396 kts 320°
2026-05-04 21:26 -25.02259 152.09727 32091 ft 392 kts 310°
2026-05-04 21:26 -24.98472 152.05370 32091 ft 393 kts 310°
2026-05-04 21:27 -24.94716 152.01068 32096 ft 393 kts 310°
2026-05-04 21:27 -24.90997 151.96819 32093 ft 391 kts 310°
2026-05-04 21:28 -24.87219 151.92502 32104 ft 391 kts 310°
2026-05-04 21:28 -24.83435 151.88185 31608 ft 393 kts 310°
2026-05-04 21:29 -24.81527 151.86009 31191 ft 394 kts 311°
2026-05-04 21:29 -24.79622 151.83838 30750 ft 395 kts 311°
2026-05-04 21:29 -24.77709 151.81659 30320 ft 398 kts 311°
2026-05-04 21:29 -24.75880 151.79576 29890 ft 399 kts 311°
2026-05-04 21:30 -24.74161 151.77620 29495 ft 403 kts 311°
2026-05-04 21:30 -24.72292 151.75494 29070 ft 402 kts 311°
2026-05-04 21:30 -24.70332 151.73267 28618 ft 401 kts 311°
2026-05-04 21:30 -24.67760 151.70343 28034 ft 401 kts 312°
2026-05-04 21:31 -24.64533 151.66679 27276 ft 399 kts 311°
2026-05-04 21:31 -24.62597 151.64482 26841 ft 396 kts 312°
2026-05-04 21:31 -24.60669 151.62295 26403 ft 396 kts 312°
2026-05-04 21:32 -24.58950 151.60345 26011 ft 394 kts 312°
2026-05-04 21:32 -24.57078 151.58225 25588 ft 392 kts 312°
2026-05-04 21:32 -24.55255 151.56160 25175 ft 388 kts 312°
2026-05-04 21:32 -24.53457 151.54125 24764 ft 385 kts 312°
2026-05-04 21:33 -24.51594 151.52016 24336 ft 386 kts 312°
2026-05-04 21:33 -24.49772 151.49954 23923 ft 385 kts 312°
2026-05-04 21:33 -24.48040 151.47996 23520 ft 384 kts 312°
2026-05-04 21:33 -24.46165 151.45877 23097 ft 385 kts 313°
2026-05-04 21:34 -24.44296 151.43764 22677 ft 381 kts 313°
2026-05-04 21:34 -24.42468 151.41701 22257 ft 380 kts 313°
2026-05-04 21:34 -24.40665 151.39665 21776 ft 378 kts 313°
2026-05-04 21:34 -24.38925 151.37701 21439 ft 379 kts 313°
2026-05-04 21:35 -24.37216 151.35774 21110 ft 380 kts 312°
2026-05-04 21:35 -24.35406 151.33736 20738 ft 377 kts 313°
2026-05-04 21:35 -24.33663 151.31770 20303 ft 372 kts 313°
2026-05-04 21:35 -24.31883 151.29765 19851 ft 366 kts 313°
2026-05-04 21:36 -24.30105 151.27763 19439 ft 365 kts 313°
2026-05-04 21:36 -24.28332 151.25768 19033 ft 364 kts 313°
2026-05-04 21:36 -24.26555 151.23770 18624 ft 363 kts 313°
2026-05-04 21:36 -24.24879 151.21884 18240 ft 362 kts 313°
2026-05-04 21:37 -24.23123 151.19911 17839 ft 360 kts 313°
2026-05-04 21:37 -24.21380 151.17953 17441 ft 359 kts 313°
2026-05-04 21:37 -24.19641 151.15999 17045 ft 357 kts 313°
2026-05-04 21:37 -24.17917 151.14064 16652 ft 356 kts 313°
2026-05-04 21:38 -24.16181 151.12115 16256 ft 354 kts 313°
2026-05-04 21:38 -24.14469 151.10197 15866 ft 353 kts 313°
2026-05-04 21:38 -24.12755 151.08273 15476 ft 351 kts 313°
2026-05-04 21:38 -24.11055 151.06367 15088 ft 350 kts 313°
2026-05-04 21:39 -24.09410 151.04526 14713 ft 350 kts 313°
2026-05-04 21:39 -24.07840 151.02766 14355 ft 349 kts 313°
2026-05-04 21:39 -24.06181 151.00926 13976 ft 349 kts 316°
2026-05-04 21:39 -24.04315 150.99348 13608 ft 349 kts 322°
2026-05-04 21:40 -24.02352 150.97788 13217 ft 348 kts 322°
2026-05-04 21:40 -24.00406 150.96240 12832 ft 347 kts 322°
2026-05-04 21:40 -23.98436 150.94676 12443 ft 347 kts 323°
2026-05-04 21:40 -23.96470 150.93114 12055 ft 346 kts 323°
2026-05-04 21:41 -23.94534 150.91576 11674 ft 346 kts 323°
2026-05-04 21:41 -23.92573 150.90019 11260 ft 347 kts 323°
2026-05-04 21:41 -23.90602 150.88455 10523 ft 345 kts 323°
2026-05-04 21:41 -23.88768 150.87001 10225 ft 330 kts 323°
2026-05-04 21:42 -23.86773 150.85913 10084 ft 310 kts 341°
2026-05-04 21:42 -23.84893 150.84909 10065 ft 288 kts 329°
2026-05-04 21:42 -23.83172 150.83872 10059 ft 278 kts 332°
2026-05-04 21:42 -23.81533 150.82930 10078 ft 281 kts 332°
2026-05-04 21:43 -23.79778 150.81944 10081 ft 284 kts 332°
2026-05-04 21:43 -23.78016 150.80965 10081 ft 286 kts 333°
2026-05-04 21:43 -23.76278 150.80006 10077 ft 287 kts 333°
2026-05-04 21:43 -23.74485 150.79019 10071 ft 287 kts 333°
2026-05-04 21:44 -23.72693 150.78033 10071 ft 287 kts 333°
2026-05-04 21:44 -23.70893 150.77043 10070 ft 287 kts 333°
2026-05-04 21:44 -23.69096 150.76057 10072 ft 287 kts 333°
2026-05-04 21:44 -23.67302 150.75073 10078 ft 288 kts 333°
2026-05-04 21:45 -23.65494 150.74083 10079 ft 287 kts 333°
2026-05-04 21:45 -23.63695 150.73096 10078 ft 287 kts 333°
2026-05-04 21:45 -23.62046 150.72192 10078 ft 287 kts 333°
2026-05-04 21:45 -23.60243 150.71204 10078 ft 287 kts 333°
2026-05-04 21:46 -23.58505 150.70252 10078 ft 287 kts 333°
2026-05-04 21:46 -23.56728 150.69278 9923 ft 290 kts 333°
2026-05-04 21:46 -23.54990 150.68327 9664 ft 287 kts 333°
2026-05-04 21:46 -23.53207 150.67352 9399 ft 285 kts 333°
2026-05-04 21:47 -23.51423 150.66374 9133 ft 284 kts 333°
2026-05-04 21:47 -23.49666 150.65413 8871 ft 283 kts 333°
2026-05-04 21:47 -23.47904 150.64450 8607 ft 283 kts 333°
2026-05-04 21:47 -23.46208 150.63522 8351 ft 283 kts 333°
2026-05-04 21:48 -23.44453 150.62564 8086 ft 284 kts 333°
2026-05-04 21:48 -23.42670 150.61589 7819 ft 284 kts 333°
2026-05-04 21:48 -23.40996 150.60675 7568 ft 284 kts 333°
2026-05-04 21:48 -23.39231 150.59712 7304 ft 284 kts 333°
2026-05-04 21:49 -23.37457 150.58742 7036 ft 282 kts 333°
2026-05-04 21:49 -23.35709 150.57787 6769 ft 281 kts 333°
2026-05-04 21:49 -23.33952 150.56830 6502 ft 280 kts 334°
2026-05-04 21:49 -23.32281 150.55917 6301 ft 278 kts 334°
2026-05-04 21:50 -23.30565 150.54982 6111 ft 277 kts 334°
2026-05-04 21:50 -23.28834 150.54039 5918 ft 276 kts 334°
2026-05-04 21:50 -23.27099 150.53095 5722 ft 275 kts 334°
2026-05-04 21:50 -23.25393 150.52165 5530 ft 274 kts 334°
2026-05-04 21:51 -23.23669 150.51225 5333 ft 273 kts 334°
2026-05-04 21:51 -23.21975 150.50304 5130 ft 267 kts 334°
2026-05-04 21:51 -23.20487 150.49185 4887 ft 258 kts 307°
2026-05-04 21:51 -23.19852 150.47520 4564 ft 252 kts 270°
2026-05-04 21:52 -23.20184 150.45702 4256 ft 243 kts 250°
2026-05-04 21:52 -23.20551 150.43301 3857 ft 239 kts 265°
2026-05-04 21:52 -23.20578 150.42178 3679 ft 235 kts 267°
2026-05-04 21:52 -23.20957 150.40588 3304 ft 226 kts 232°
2026-05-04 21:53 -23.22184 150.39673 3076 ft 207 kts 188°
2026-05-04 21:53 -23.23456 150.39908 2891 ft 193 kts 146°
2026-05-04 21:53 -23.24488 150.40778 2712 ft 184 kts 144°
2026-05-04 21:53 -23.25534 150.41524 2526 ft 176 kts 149°
2026-05-04 21:54 -23.26586 150.42166 2293 ft 171 kts 152°
2026-05-04 21:54 -23.27660 150.42775 1988 ft 167 kts 152°
2026-05-04 21:54 -23.28614 150.43314 1806 ft 156 kts 152°
2026-05-04 21:54 -23.29551 150.43791 1538 ft 146 kts 156°
2026-05-04 21:55 -23.30508 150.44212 1264 ft 145 kts 158°
2026-05-04 21:55 -23.31400 150.44598 1173 ft 133 kts 156°
2026-05-04 21:55 -23.32191 150.44975 964 ft 133 kts 157°
2026-05-04 21:55 -23.33045 150.45351 824 ft 134 kts 158°
2026-05-04 21:56 -23.33911 150.45760 666 ft 134 kts 158°
2026-05-04 21:56 -23.34780 150.46129 494 ft 135 kts 159°
2026-05-04 21:56 -23.35627 150.46501 343 ft 134 kts 160°
2026-05-04 21:56 -23.36495 150.46867 155 ft 129 kts 160°
2026-05-04 21:57 -23.37296 150.47224 39 ft 106 kts 158°
2026-05-04 21:57 -23.37710 150.47406 39 ft 46 kts 157°
2026-05-04 21:57 -23.37891 150.47494 39 ft 13 kts 131°
2026-05-04 21:57 -23.37871 150.47589 39 ft 13 kts 68°
2026-05-04 21:58 -23.37840 150.47664 39 ft 7 kts 61°
2026-05-04 21:58 -23.37856 150.47711 39 ft 8 kts 155°
2026-05-04 21:58 -23.37889 150.47763 38 ft 7 kts 103°
2026-05-04 21:58 -23.37892 150.47780 37 ft 0 kts 103°